Theta_e
286 288 288 287 287 286 285 286 286 285 284 283 284 283 282 281 281 281 281 279 279 278 278 278 278 278 277 277 278 278 276 275 271 274 276 276 276 276 277 277 278 278 278
286 286 287 287 285 286 286 286 287 285 285 284 284 283 282 282 281 281 280 279 279 278 277 277 277 278 276 276 276 275 275 275 273 271 273 274 274 275 276 276 277 278 278
285 284 284 284 285 287 287 286 285 285 284 284 283 282 282 282 281 281 281 279 279 278 278 277 276 276 275 275 274 274 274 275 274 272 272 274 274 275 275 276 276 277 278
286 284 284 283 284 286 286 284 284 285 284 284 283 283 282 282 281 281 280 279 278 278 277 277 276 276 275 274 274 274 274 273 273 271 272 273 274 276 276 274 274 275 276
287 287 287 287 285 285 285 285 284 284 284 284 282 282 282 281 280 280 279 279 278 276 276 277 276 276 278 276 274 273 273 271 271 272 271 273 273 274 273 275 273 274 275
284 284 287 286 285 285 286 285 283 283 283 282 281 281 280 280 284 284 281 278 277 276 275 275 275 275 277 280 279 278 276 271 268 270 271 272 273 274 274 273 273 272 271
282 283 284 286 286 285 285 284 282 282 282 281 281 281 280 280 285 285 284 278 277 276 276 275 274 275 275 277 280 281 281 281 279 274 268 273 273 274 274 274 274 274 273
281 282 282 282 284 283 282 282 281 282 281 280 280 280 280 279 285 286 284 278 277 276 275 275 274 274 275 275 275 276 276 276 276 276 275 274 275 277 277 276 275 272 272
282 281 279 279 281 279 280 279 279 280 280 280 280 280 279 279 285 286 283 277 276 275 275 275 275 274 277 279 274 273 273 275 278 280 280 280 279 279 278 272 267 266 266
282 280 278 277 278 278 279 277 279 280 279 279 278 279 278 277 285 286 282 277 274 274 275 275 277 275 279 280 274 273 272 273 274 272 273 274 274 272 274 272 269 264 266
281 280 279 277 277 279 278 278 278 278 276 277 277 277 277 278 282 286 283 277 275 274 274 274 275 279 279 280 279 274 273 274 272 270 269 268 269 270 270 271 271 270 267
277 279 279 278 277 277 277 277 277 277 276 275 275 274 275 277 281 286 283 280 279 275 274 274 275 279 279 280 279 278 278 274 266 265 265 266 267 268 269 270 271 272 272
273 274 277 279 277 276 276 275 275 275 274 273 273 272 272 275 278 285 284 281 280 275 275 276 277 280 280 279 279 277 272 268 264 261 263 265 267 269 270 269 270 270 270
268 270 273 276 277 276 275 275 274 274 274 273 273 272 272 273 276 281 282 279 279 276 277 276 277 277 277 273 273 273 269 268 267 265 265 267 268 267 267 268 266 267 266
267 268 270 271 275 276 275 275 274 275 276 274 274 273 271 271 275 280 281 277 277 274 274 274 272 270 268 267 267 266 267 266 265 266 265 265 265 265 266 267 266 265 263
263 265 267 269 271 275 274 273 279 279 279 280 279 276 274 277 278 281 283 281 279 278 270 268 267 267 266 266 265 265 265 265 265 265 264 264 264 264 264 265 265 264 263
261 262 264 266 268 271 273 272 271 275 280 280 281 280 278 277 279 281 282 282 280 276 268 267 266 266 266 265 265 264 264 265 265 264 263 263 263 263 262 262 263 264 263
260 261 262 263 266 270 272 272 272 272 272 274 279 280 280 279 279 280 282 282 275 272 268 266 265 265 264 264 264 263 263 262 262 262 261 260 258 259 260 261 262 262 262
259 260 261 263 264 266 270 271 271 271 272 272 274 279 278 279 280 280 282 276 273 265 265 265 264 263 262 262 261 260 259 258 259 258 257 258 256 257 259 260 262 262 263
259 260 261 261 262 264 269 270 269 269 270 271 272 274 275 275 275 276 277 274 268 265 263 261 261 260 259 259 257 257 256 255 255 256 256 256 257 258 259 260 261 262 263
259 259 260 261 262 264 268 268 269 268 270 271 272 274 276 273 274 275 268 266 264 262 261 260 258 257 256 255 254 254 253 255 255 254 254 255 256 256 258 260 261 263 263
260 260 260 261 262 265 268 268 268 269 270 270 271 273 278 273 267 265 263 262 261 260 260 259 256 256 255 254 254 253 253 253 252 252 253 255 256 257 258 260 262 263 262
262 261 261 262 263 267 267 267 268 269 270 270 270 270 265 263 262 261 259 258 257 256 256 256 255 253 253 253 252 253 252 251 253 251 252 253 255 256 258 260 262 261 260
263 262 262 263 265 266 266 265 267 265 266 268 263 262 262 261 260 258 257 256 256 254 254 253 253 254 253 252 250 249 250 251 250 250 251 253 255 256 260 263 262 260 259
265 264 264 265 265 264 263 263 263 265 263 262 260 260 260 259 258 257 256 256 254 254 253 253 253 253 252 251 251 251 251 255 254 254 254 255 256 258 262 261 259 259 258
262 262 262 262 262 262 262 262 262 261 260 260 260 260 259 258 257 256 255 255 254 254 254 253 253 251 251 252 252 253 256 259 258 259 259 262 264 264 262 260 256 257 257
Wind_Speed
9 10 10 11 11 9 11 12 13 12 14 15 16 16 16 17 16 15 14 13 14 11 9 11 10 8 6 5 5 4 5 4 3 2 2 1 3 6 8 7 8 9 10
6 7 10 10 9 11 13 14 13 15 14 15 16 17 17 17 17 18 16 14 16 14 13 11 11 8 9 8 6 7 5 5 4 4 3 3 6 6 9 9 8 8 8
7 8 7 7 9 15 15 13 12 13 13 13 14 17 18 18 18 18 18 16 16 16 15 14 13 12 10 8 7 7 4 4 4 4 3 3 4 5 7 7 7 7 5
8 7 9 9 12 13 9 8 12 14 15 17 17 16 17 17 17 17 17 16 15 14 14 13 13 13 12 11 9 8 7 6 5 3 3 5 6 5 5 5 6 4 7
16 13 13 11 9 9 10 12 11 13 13 13 14 15 15 15 13 17 17 17 16 14 13 13 12 13 18 15 9 10 9 5 4 5 5 5 5 4 5 6 8 8 8
14 14 16 11 10 13 13 12 13 14 13 14 15 15 15 12 24 28 21 16 17 16 15 13 12 14 16 21 19 18 13 9 7 5 4 4 6 5 5 7 9 10 8
14 14 14 14 14 12 11 12 14 15 13 15 15 16 17 16 29 31 30 16 17 16 16 14 12 10 12 12 19 19 17 20 14 7 4 4 5 5 8 9 8 10 10
13 15 15 14 15 9 8 12 11 11 14 12 13 14 13 14 29 30 29 15 15 16 16 17 15 15 15 14 10 8 7 5 4 4 3 6 7 8 6 8 9 10 10
13 16 15 15 13 7 8 8 7 9 9 11 10 13 15 13 28 29 27 15 15 15 14 15 14 14 21 23 12 9 7 7 10 13 12 11 12 13 12 6 5 6 10
14 16 15 11 12 6 6 5 3 5 7 6 8 11 14 13 27 31 26 11 13 11 12 12 20 15 25 24 12 11 9 8 7 4 3 4 5 7 11 5 2 5 7
17 14 13 10 9 11 5 3 3 3 4 4 7 8 12 14 18 31 31 13 13 12 11 12 11 24 24 24 20 11 9 7 6 4 1 1 3 4 3 4 6 7 9
17 18 13 11 6 6 7 4 4 4 7 8 7 5 5 9 16 31 33 21 22 15 14 11 12 25 23 23 17 18 15 9 4 3 1 2 3 4 4 5 9 10 10
16 18 17 12 8 6 7 6 4 4 5 6 7 7 6 6 8 27 30 22 20 8 9 15 23 27 23 18 18 15 9 4 3 3 2 3 4 4 8 8 10 11 12
17 17 16 16 11 8 6 6 6 7 7 7 8 9 8 8 9 12 12 13 17 10 17 13 17 16 13 9 8 8 5 5 5 3 3 3 3 4 6 7 8 9 10
16 16 15 12 14 10 9 8 9 9 11 10 9 9 10 11 13 15 14 11 11 14 15 10 8 8 8 7 6 6 5 4 4 4 2 1 4 5 7 7 7 8 11
17 14 12 11 11 10 8 8 20 18 19 21 19 14 9 15 24 27 28 26 27 30 9 8 8 8 8 8 7 6 5 5 4 3 1 2 4 5 7 7 8 8 11
16 16 13 13 11 12 9 8 8 10 21 22 22 23 22 17 25 27 26 25 29 27 9 9 8 8 7 6 6 6 5 5 4 2 1 4 5 5 6 8 8 9 11
15 20 14 12 12 11 10 8 7 8 7 8 18 18 23 23 25 31 31 28 17 15 9 10 9 8 7 6 6 6 6 3 2 1 2 4 3 4 6 8 9 10 11
14 12 12 11 12 13 13 8 8 8 8 7 6 15 17 22 26 32 35 14 14 11 9 8 8 7 6 7 5 5 4 4 1 2 3 5 4 4 6 8 10 13 15
14 19 17 12 11 11 12 9 7 8 8 7 8 9 10 11 12 14 15 10 9 9 9 9 7 6 5 4 4 5 4 3 3 3 5 4 5 5 7 8 9 11 11
12 12 15 12 11 11 11 8 7 7 7 7 7 8 18 11 11 10 7 9 9 8 8 8 7 6 5 4 4 4 4 3 3 3 4 5 5 5 7 8 10 10 12
13 11 10 10 10 12 9 7 7 8 7 7 6 9 25 6 9 9 9 9 9 8 6 7 6 5 5 5 4 4 4 3 3 4 4 6 5 6 7 9 10 10 11
12 12 10 10 10 9 6 6 6 7 6 6 7 7 8 9 9 9 9 9 8 8 6 6 6 4 3 2 3 4 4 4 5 4 4 6 6 7 7 9 9 10 11
7 9 8 9 6 4 3 3 4 7 7 7 9 8 8 9 10 11 10 9 8 7 5 5 4 5 4 4 3 3 4 4 3 5 7 7 8 9 9 8 9 10 11
3 2 3 3 4 5 6 6 6 6 8 8 8 8 9 9 11 10 9 8 7 6 5 5 3 5 5 7 6 6 7 10 9 8 6 9 11 14 8 7 8 9 11
7 7 6 6 6 6 6 7 7 8 8 8 8 8 9 10 10 9 8 7 6 5 5 3 4 4 5 5 6 8 9 10 9 13 10 9 9 7 7 7 8 8 11
Wind_Direction
199 206 210 209 203 189 189 189 185 178 175 174 180 184 185 184 183 185 187 178 185 178 171 171 174 160 167 163 161 170 178 161 166 281 256 41 319 286 288 278 277 278 287
274 242 220 220 202 198 204 197 191 192 184 176 178 185 187 189 185 186 186 185 185 182 177 171 173 167 170 169 175 181 179 175 150 180 234 233 231 237 256 262 263 261 265
238 222 226 240 233 224 216 198 183 184 179 185 185 189 189 190 188 190 186 186 188 184 179 176 173 170 176 171 173 179 168 182 171 173 206 211 247 251 265 263 262 262 257
291 246 229 214 218 220 224 200 193 193 188 186 189 193 194 191 192 190 183 182 186 181 176 176 170 178 175 169 178 178 177 188 184 164 206 239 247 255 252 273 289 279 302
334 308 272 250 229 217 203 202 202 194 197 195 187 191 193 190 190 186 184 178 177 173 170 173 173 174 176 175 172 182 179 171 167 190 218 227 257 271 287 303 305 310 301
324 318 305 276 240 227 224 203 198 194 192 181 189 192 193 196 197 190 181 176 176 175 170 171 167 162 182 188 192 191 183 176 194 191 218 236 275 279 300 306 311 327 334
330 330 323 299 271 241 223 207 200 200 190 194 194 191 200 196 195 191 186 176 174 177 171 167 164 172 174 185 195 196 206 212 208 191 164 227 269 283 295 292 303 305 301
331 339 330 319 292 267 227 220 211 200 195 191 193 193 200 202 195 193 184 175 175 174 171 170 170 169 178 176 179 187 203 216 237 255 224 240 248 249 264 301 314 312 297
335 338 334 327 309 270 243 226 210 195 192 196 193 186 196 205 193 188 179 175 173 171 168 168 167 165 182 182 171 182 195 215 225 238 250 272 295 304 314 317 307 319 305
332 331 323 324 311 282 270 258 235 190 207 180 185 190 190 187 195 187 176 173 170 163 161 162 169 169 179 182 172 176 191 201 195 210 244 268 307 300 309 304 292 272 284
317 312 316 314 312 297 275 244 249 175 120 171 194 194 190 189 195 189 179 178 169 161 162 165 176 179 182 188 182 179 192 165 206 165 185 289 300 294 288 280 267 256 264
313 312 306 303 299 292 278 249 219 182 171 169 178 185 196 207 216 191 179 186 175 161 171 166 169 179 185 187 185 180 181 146 133 132 156 272 285 280 283 280 269 263 261
317 312 310 304 279 260 254 242 197 188 189 185 179 177 181 199 210 195 184 178 180 159 159 167 169 178 181 188 178 176 134 123 120 121 198 239 258 282 296 289 285 282 276
305 306 304 305 287 256 239 239 220 195 197 197 197 190 181 175 186 186 178 169 173 165 162 160 170 167 157 146 150 152 128 151 161 176 196 264 295 301 284 285 292 294 291
296 295 296 294 286 268 237 230 227 221 201 192 202 191 181 186 196 188 179 163 159 160 150 160 161 142 153 158 153 146 149 155 168 177 176 285 287 288 284 293 290 291 281
295 294 288 291 288 275 252 246 242 232 223 217 201 195 194 199 193 189 185 164 161 160 157 157 154 156 176 170 159 149 151 161 170 143 136 253 269 275 285 291 288 283 284
280 283 285 282 281 282 250 237 249 242 231 230 221 203 196 192 190 194 190 176 172 156 160 166 168 165 166 162 155 147 146 153 127 129 227 251 256 269 290 290 290 285 291
272 274 274 277 274 269 259 236 230 231 217 211 229 217 196 193 193 193 184 174 172 169 163 164 159 160 157 151 150 142 138 126 122 146 250 251 247 255 279 283 287 294 293
272 269 270 273 276 273 276 230 229 228 223 200 188 211 194 189 194 195 187 178 168 154 155 150 147 147 150 141 149 137 131 130 163 234 232 250 241 236 265 276 283 295 289
269 263 256 258 262 263 262 227 211 218 211 205 193 201 165 171 191 189 185 167 153 140 142 134 128 131 133 138 137 133 124 150 204 229 248 247 259 252 267 280 287 287 301
265 262 254 257 257 260 252 221 213 212 210 203 198 183 171 179 181 173 130 132 129 132 130 132 127 125 127 137 155 138 160 184 195 232 249 257 257 267 270 273 280 284 300
260 256 246 246 252 256 226 205 203 202 202 191 175 172 186 168 122 123 120 112 107 109 111 116 122 132 150 161 170 175 174 194 193 220 246 261 261 265 268 273 278 294 302
248 244 240 243 249 231 199 193 193 194 179 155 153 133 104 111 111 113 109 104 101 103 100 101 121 120 123 176 198 191 179 200 211 189 238 259 265 268 270 272 286 299 305
216 223 225 240 218 178 162 135 112 111 127 126 99 104 111 115 108 102 102 99 102 109 115 116 119 151 161 199 214 212 218 228 201 221 223 250 262 274 268 278 290 293 297
42 175 158 117 109 106 97 96 104 105 86 100 104 104 103 101 101 104 106 109 112 119 125 129 155 178 195 216 224 231 238 250 245 234 233 240 250 260 266 281 280 292 295
23 40 50 61 71 83 92 98 92 92 96 99 101 101 105 105 106 109 111 114 120 120 132 156 174 193 221 238 247 251 253 259 250 241 234 245 261 276 280 268 274 290 292